TimeEDT,TemperatureF,Dew PointF,Humidity,Sea Level PressureIn,VisibilityMPH,Wind Direction,Wind SpeedMPH,Gust SpeedMPH,PrecipitationIn,Events,Conditions,WindDirDegrees,DateUTC
12:53 AM,64.0,62.1,93,29.93,10.0,Calm,Calm,-,N/A,,Mostly Cloudy,0,2013-05-22 04:53:00
1:53 AM,64.0,62.1,93,29.91,10.0,NE,3.5,-,N/A,,Mostly Cloudy,40,2013-05-22 05:53:00
2:53 AM,64.0,61.0,90,29.90,10.0,North,3.5,-,N/A,,Mostly Cloudy,350,2013-05-22 06:53:00
3:53 AM,63.0,61.0,93,29.88,10.0,North,5.8,-,N/A,,Mostly Cloudy,10,2013-05-22 07:53:00
4:53 AM,63.0,61.0,93,29.91,10.0,North,3.5,-,N/A,,Mostly Cloudy,360,2013-05-22 08:53:00
5:47 AM,62.6,62.6,100,29.94,10.0,Calm,Calm,-,N/A,,Mostly Cloudy,0,2013-05-22 09:47:00
5:53 AM,63.0,61.0,93,29.91,10.0,East,3.5,-,N/A,,Mostly Cloudy,90,2013-05-22 09:53:00
6:53 AM,63.0,61.0,93,29.91,10.0,ESE,3.5,-,N/A,,Mostly Cloudy,110,2013-05-22 10:53:00
7:53 AM,64.9,62.1,90,29.93,10.0,Calm,Calm,-,N/A,,Mostly Cloudy,0,2013-05-22 11:53:00
8:53 AM,68.0,63.0,84,29.94,10.0,Calm,Calm,-,0.00,Rain,Light Rain,0,2013-05-22 12:53:00
9:53 AM,70.0,64.0,81,29.94,10.0,ESE,4.6,-,0.00,,Scattered Clouds,120,2013-05-22 13:53:00
10:53 AM,75.0,66.9,76,29.92,10.0,South,4.6,-,N/A,,Scattered Clouds,190,2013-05-22 14:53:00
11:53 AM,81.0,66.9,62,29.91,10.0,SW,11.5,-,N/A,,Scattered Clouds,220,2013-05-22 15:53:00
12:53 PM,82.0,66.9,60,29.90,10.0,SSW,15.0,-,N/A,,Mostly Cloudy,200,2013-05-22 16:53:00
1:53 PM,84.9,64.9,51,29.88,10.0,SW,17.3,-,N/A,,Mostly Cloudy,230,2013-05-22 17:53:00
2:14 PM,84.2,66.2,55,29.89,10.0,SW,13.8,-,N/A,Thunderstorm,Thunderstorm,220,2013-05-22 18:14:00
2:49 PM,69.8,60.8,73,29.90,7.0,South,10.4,-,0.10,Rain-Thunderstorm,Light Thunderstorms and Rain,170,2013-05-22 18:49:00
2:53 PM,72.0,60.1,66,29.87,7.0,South,9.2,-,0.10,Rain-Thunderstorm,Light Thunderstorms and Rain,190,2013-05-22 18:53:00
3:11 PM,73.4,62.6,69,29.88,10.0,SW,8.1,-,0.00,,Scattered Clouds,220,2013-05-22 19:11:00
3:53 PM,81.0,66.0,60,29.83,10.0,SSW,8.1,-,0.00,,Mostly Cloudy,210,2013-05-22 19:53:00
4:53 PM,84.9,63.0,48,29.81,10.0,West,13.8,24.2,N/A,,Mostly Cloudy,260,2013-05-22 20:53:00
5:53 PM,81.0,64.9,58,29.81,10.0,West,10.4,-,N/A,,Mostly Cloudy,280,2013-05-22 21:53:00
6:04 PM,80.6,64.4,58,29.85,10.0,West,13.8,-,N/A,Thunderstorm,Thunderstorm,260,2013-05-22 22:04:00
6:53 PM,73.0,59.0,61,29.83,10.0,South,9.2,-,N/A,Thunderstorm,Thunderstorm,180,2013-05-22 22:53:00
7:04 PM,73.4,59.0,61,29.86,10.0,SSW,4.6,-,0.00,Rain,Light Rain,210,2013-05-22 23:04:00
7:53 PM,73.0,62.1,68,29.84,10.0,SSW,9.2,-,0.00,,Mostly Cloudy,210,2013-05-22 23:53:00
8:53 PM,72.0,63.0,73,29.85,10.0,SSW,9.2,-,0.00,Rain,Light Rain,200,2013-05-23 00:53:00
9:53 PM,71.1,63.0,75,29.86,10.0,SW,5.8,-,0.00,,Mostly Cloudy,220,2013-05-23 01:53:00
10:53 PM,70.0,63.0,78,29.88,10.0,WNW,4.6,-,N/A,,Mostly Cloudy,290,2013-05-23 02:53:00
11:53 PM,69.1,64.0,84,29.89,10.0,NW,4.6,-,N/A,,Mostly Cloudy,320,2013-05-23 03:53:00